TimeMST,TemperatureF,Dew PointF,Humidity,Sea Level PressureIn,VisibilityMPH,Wind Direction,Wind SpeedMPH,Gust SpeedMPH,PrecipitationIn,Events,Conditions,WindDirDegrees,DateUTC
12:15 AM,32.0,30.2,93,29.80,9.0,SW,10.4,-,0.02,,Overcast,220,2013-03-09 07:15:00
12:35 AM,32.0,30.2,93,29.80,10.0,WSW,8.1,-,0.03,,Overcast,240,2013-03-09 07:35:00
12:55 AM,32.0,28.4,87,29.79,10.0,West,5.8,-,0.04,,Overcast,260,2013-03-09 07:55:00
1:15 AM,32.0,28.4,87,29.78,10.0,SW,5.8,-,0.01,,Overcast,220,2013-03-09 08:15:00
1:35 AM,32.0,28.4,87,29.79,10.0,South,5.8,-,0.01,,Overcast,190,2013-03-09 08:35:00
1:55 AM,30.2,28.4,93,29.78,10.0,South,4.6,-,0.01,,Overcast,180,2013-03-09 08:55:00
2:15 AM,30.2,28.4,93,29.79,10.0,South,6.9,-,0.01,,Overcast,170,2013-03-09 09:15:00
2:35 AM,30.2,28.4,93,29.79,10.0,South,6.9,-,0.01,,Overcast,190,2013-03-09 09:35:00
2:55 AM,30.2,23.0,75,29.79,10.0,WSW,11.5,-,0.01,,Overcast,240,2013-03-09 09:55:00
3:15 AM,30.2,23.0,75,29.78,10.0,WSW,4.6,-,N/A,,Overcast,250,2013-03-09 10:15:00
3:35 AM,28.4,24.8,86,29.79,9.0,West,8.1,20.7,N/A,,Overcast,260,2013-03-09 10:35:00
3:55 AM,28.4,23.0,80,29.80,1.5,West,4.6,-,N/A,,Overcast,260,2013-03-09 10:55:00
4:15 AM,26.6,24.8,93,29.79,1.2,Calm,Calm,-,N/A,,Overcast,0,2013-03-09 11:15:00
4:35 AM,26.6,23.0,86,29.77,4.0,ESE,5.8,-,N/A,,Overcast,110,2013-03-09 11:35:00
4:55 AM,26.6,23.0,86,29.78,10.0,North,3.5,-,N/A,,Overcast,10,2013-03-09 11:55:00
5:15 AM,24.8,21.2,86,29.78,10.0,NW,3.5,-,N/A,,Overcast,320,2013-03-09 12:15:00
5:35 AM,24.8,21.2,86,29.77,10.0,Calm,Calm,-,N/A,,Mostly Cloudy,0,2013-03-09 12:35:00
5:55 AM,24.8,19.4,80,29.78,10.0,NNE,4.6,-,N/A,,Mostly Cloudy,30,2013-03-09 12:55:00
6:15 AM,24.8,21.2,86,29.77,10.0,North,6.9,-,N/A,,Mostly Cloudy,10,2013-03-09 13:15:00
6:35 AM,26.6,23.0,86,29.76,10.0,WNW,5.8,-,N/A,,Mostly Cloudy,290,2013-03-09 13:35:00
6:55 AM,26.6,23.0,86,29.77,10.0,SSW,5.8,-,N/A,,Mostly Cloudy,200,2013-03-09 13:55:00
7:15 AM,24.8,19.4,80,29.78,10.0,South,8.1,-,N/A,,Mostly Cloudy,190,2013-03-09 14:15:00
7:35 AM,23.0,17.6,80,29.78,10.0,SE,10.4,-,N/A,,Overcast,130,2013-03-09 14:35:00
7:55 AM,24.8,17.6,74,29.78,10.0,South,8.1,-,N/A,,Overcast,190,2013-03-09 14:55:00
8:15 AM,24.8,19.4,80,29.78,10.0,SW,6.9,-,N/A,,Partly Cloudy,220,2013-03-09 15:15:00
8:35 AM,26.6,17.6,69,29.79,10.0,WSW,9.2,-,N/A,,Clear,240,2013-03-09 15:35:00
8:55 AM,26.6,17.6,69,29.79,10.0,SW,15.0,-,N/A,,Clear,220,2013-03-09 15:55:00
9:15 AM,26.6,19.4,74,29.79,10.0,WSW,13.8,-,N/A,,Partly Cloudy,240,2013-03-09 16:15:00
9:35 AM,28.4,19.4,69,29.79,10.0,SW,12.7,-,N/A,,Scattered Clouds,230,2013-03-09 16:35:00
9:55 AM,28.4,17.6,64,29.78,10.0,WSW,15.0,-,N/A,,Partly Cloudy,240,2013-03-09 16:55:00
10:15 AM,28.4,19.4,69,29.78,10.0,SW,15.0,-,N/A,,Partly Cloudy,220,2013-03-09 17:15:00
10:35 AM,28.4,19.4,69,29.78,10.0,SSW,19.6,23.0,N/A,,Partly Cloudy,210,2013-03-09 17:35:00
10:55 AM,30.2,19.4,64,29.77,10.0,SW,17.3,23.0,0.01,,Mostly Cloudy,230,2013-03-09 17:55:00
11:15 AM,28.4,19.4,69,29.77,10.0,SW,16.1,21.9,N/A,,Mostly Cloudy,220,2013-03-09 18:15:00
11:35 AM,28.4,19.4,69,29.77,10.0,WSW,18.4,-,N/A,,Mostly Cloudy,240,2013-03-09 18:35:00
11:55 AM,28.4,19.4,69,29.77,10.0,WSW,16.1,-,N/A,,Mostly Cloudy,240,2013-03-09 18:55:00
12:15 PM,28.4,19.4,69,29.76,10.0,WSW,17.3,-,N/A,,Overcast,240,2013-03-09 19:15:00
12:35 PM,28.4,19.4,69,29.76,10.0,WSW,15.0,-,N/A,,Overcast,250,2013-03-09 19:35:00
12:55 PM,28.4,17.6,64,29.76,10.0,West,13.8,-,N/A,,Overcast,260,2013-03-09 19:55:00
1:15 PM,28.4,17.6,64,29.76,9.0,West,12.7,-,N/A,,Overcast,270,2013-03-09 20:15:00
1:35 PM,28.4,19.4,69,29.77,3.0,WNW,9.2,-,N/A,,Mostly Cloudy,300,2013-03-09 20:35:00
1:55 PM,28.4,21.2,74,29.78,2.5,WNW,11.5,-,N/A,,Overcast,290,2013-03-09 20:55:00
2:15 PM,26.6,21.2,80,29.78,1.2,WNW,8.1,-,N/A,,Overcast,290,2013-03-09 21:15:00
2:35 PM,26.6,21.2,80,29.78,2.5,Calm,Calm,-,N/A,,Overcast,0,2013-03-09 21:35:00
2:55 PM,28.4,21.2,74,29.79,10.0,Calm,Calm,-,N/A,,Overcast,0,2013-03-09 21:55:00
3:15 PM,28.4,21.2,74,29.79,10.0,ENE,6.9,-,N/A,,Overcast,70,2013-03-09 22:15:00
3:35 PM,28.4,21.2,74,29.80,1.8,NNE,4.6,-,N/A,,Overcast,30,2013-03-09 22:35:00
3:55 PM,28.4,23.0,80,29.80,1.2,NE,4.6,-,N/A,,Overcast,50,2013-03-09 22:55:00
4:15 PM,28.4,23.0,80,29.81,2.0,East,6.9,-,N/A,,Overcast,80,2013-03-09 23:15:00
4:35 PM,28.4,23.0,80,29.82,7.0,East,4.6,-,N/A,,Overcast,80,2013-03-09 23:35:00
4:55 PM,28.4,23.0,80,29.83,4.0,East,6.9,-,N/A,,Overcast,90,2013-03-09 23:55:00
5:15 PM,26.6,23.0,86,29.84,2.5,East,5.8,-,N/A,,Overcast,80,2013-03-10 00:15:00
5:35 PM,26.6,23.0,86,29.85,2.0,East,4.6,-,N/A,,Overcast,80,2013-03-10 00:35:00
5:55 PM,26.6,23.0,86,29.86,1.2,East,4.6,-,N/A,,Overcast,80,2013-03-10 00:55:00
6:15 PM,26.6,23.0,86,29.87,2.5,East,3.5,-,N/A,,Overcast,80,2013-03-10 01:15:00
6:35 PM,26.6,23.0,86,29.88,5.0,ESE,5.8,-,N/A,,Overcast,110,2013-03-10 01:35:00
6:55 PM,26.6,23.0,86,29.89,10.0,ESE,6.9,-,N/A,,Overcast,110,2013-03-10 01:55:00
7:15 PM,26.6,23.0,86,29.90,10.0,East,5.8,-,N/A,,Overcast,100,2013-03-10 02:15:00
7:35 PM,26.6,23.0,86,29.91,10.0,East,8.1,-,N/A,,Overcast,100,2013-03-10 02:35:00
7:55 PM,26.6,23.0,86,29.92,10.0,ESE,5.8,-,N/A,,Overcast,110,2013-03-10 02:55:00
8:15 PM,26.6,23.0,86,29.92,8.0,ESE,4.6,-,N/A,,Overcast,110,2013-03-10 03:15:00
8:35 PM,26.6,23.0,86,29.93,6.0,East,5.8,-,N/A,,Overcast,100,2013-03-10 03:35:00
8:55 PM,26.6,23.0,86,29.94,3.0,East,4.6,-,N/A,,Overcast,100,2013-03-10 03:55:00
9:15 PM,26.6,23.0,86,29.95,5.0,ESE,4.6,-,N/A,,Mostly Cloudy,110,2013-03-10 04:15:00
9:35 PM,26.6,23.0,86,29.95,10.0,Calm,Calm,-,N/A,,Overcast,0,2013-03-10 04:35:00
9:55 PM,26.6,23.0,86,29.95,10.0,ESE,3.5,-,N/A,,Overcast,110,2013-03-10 04:55:00
10:15 PM,26.6,23.0,86,29.96,10.0,Calm,Calm,-,N/A,,Overcast,0,2013-03-10 05:15:00
10:35 PM,24.8,21.2,86,29.96,10.0,Calm,Calm,-,N/A,,Overcast,0,2013-03-10 05:35:00
10:55 PM,24.8,21.2,86,29.96,9.0,ENE,3.5,-,N/A,,Mostly Cloudy,60,2013-03-10 05:55:00
11:15 PM,24.8,21.2,86,29.96,8.0,Calm,Calm,-,N/A,,Overcast,0,2013-03-10 06:15:00
11:35 PM,24.8,21.2,86,29.97,10.0,NNW,3.5,-,N/A,,Overcast,340,2013-03-10 06:35:00
11:55 PM,26.6,23.0,86,29.97,10.0,North,4.6,-,N/A,,Overcast,360,2013-03-10 06:55:00